Regional Weather Roundup
Issued by NWS

Home | Current Version | Previous Version | Text Only | Print | Product List | Glossary On
Versions: 1 2 3 4 5 6 7 8 9 10 11 12 13 14 15 16 17 18 19 20 21 22 23 24 25 26
000
ASUS42 KTBW 302016
RWRFL
FLORIDA REGIONAL WEATHER ROUNDUP
NATIONAL WEATHER SERVICE TAMPA BAY RUSKIN FL
400 PM EDT FRI SEP 30 2016

NOTE: "FAIR" INDICATES FEW OR NO CLOUDS BELOW 12,000 FEET WITH NO
SIGNIFICANT WEATHER AND/OR OBSTRUCTIONS TO VISIBILITY.

FLZ001>010-012>015-112-114-115-302100-
PANHANDLE FLORIDA

CITY           SKY/WX    TMP DP  RH WIND       PRES   REMARKS
PENSACOLA      SUNNY     81  52  36 N7        30.03F
PENSACOLA NAS  SUNNY     81  52  36 VRB3      30.02F
MILTON NAS     MOSUNNY   79  53  40 N5        30.03
CRESTVIEW      SUNNY     81  50  33 NW6       30.04F
DUKE FIELD     SUNNY     80  50  35 N8        30.02F
VALPARAISO     SUNNY     83  50  31 NW7       30.01F
MARY ESTHER    SUNNY     81  51  34 N8        30.00F
TRI COUNTY     FAIR      82  51  34 MISG      30.02F
PANAMA CITY    FAIR      82  51  34 W6        30.00F
TYNDALL AFB    SUNNY     80  55  42 NW10      30.01F
APALACHICOLA   SUNNY     81  61  50 SW10      30.01F

STATION/POSITION SKY/WX   TEMP    WIND        PRES    WAVE   SWELL
                          AIR SEA DIR/SP/G            HT/PER HT/PER
                          (F)     (DEG/KT/KT) (MB)    (FT/S) (FT/S)
30.1N   87.6W              75 84  290/  6/  8 1017.4F   1/ 4
29.2N   88.2W              76 84   10/ 10/ 14 1017.4F
28.8N   86.0W              77 85              1017.0F   2/ 5   2/ 5
PANAMA CITY BEAC           76 83  260/ 11/ 12 1017.1F
TOWER C                    78     300/  3/  4 1017.0F
28.5N   84.5W              81 85   20/  6/ 10 1016.0F   2/ 5   2/ 5

$$
FLZ011-016>038-118-127-128-134-139-239-302100-
NORTH FLORIDA

CITY           SKY/WX    TMP DP  RH WIND       PRES   REMARKS
MARIANNA       SUNNY     80  51  36 NW8       30.00F
TALLAHASSEE    SUNNY     83  48  29 NW5       30.00F
PERRY          SUNNY     85  56  37 SW7       30.00F
CROSS CITY     SUNNY     86  63  45 W10       29.99F
LAKE CITY      FAIR      86  59  39 W7        29.99F
GAINESVILLE    SUNNY     87  65  47 W7G17     29.97F
WILLISTON      SUNNY     90  70  51 W6G13     29.98S HX  95
PALATKA        FAIR      90  72  55 SW5       29.97S HX  96
MAYPORT NAS    MOSUNNY   86  72  62 SE7       29.96F
JACKSONVILLE   MOSUNNY   89  61  38 W12       29.96F
JAX NAS        MOSUNNY   92  61  35 W12       29.97F
FERNANDINA BEA FAIR      86  72  62 E6        29.95F
ST AUGUSTINE   PTSUNNY   84  73  69 E13       29.97F

STATION/POSITION SKY/WX   TEMP    WIND        PRES    WAVE   SWELL
                          AIR SEA DIR/SP/G            HT/PER HT/PER
                          (F)     (DEG/KT/KT) (MB)    (FT/S) (FT/S)
SHELL POINT                81     150/  7/  9 1015.4
KEATON BEACH               80     280/  7/  9 1015.7F
CEDAR KEY                  82     300/  8/ 10 1015.8F
FERNANDINA                 87 84   80/  3/  4 1015.1F
30.7N   81.3W                 85                N/A     2/10
MAYPORT                    82 84   50/  9/ 12 1015.5F
31.4N   80.9W              79 83  200/  6/  8 1015.2F   2/10   2/10
ST AUGUSTINE               81 84  130/  7/  9 1015.6F

$$
FLZ040-043>046-052-053-057-058-063-144-302100-
INTERIOR CENTRAL FLORIDA

CITY           SKY/WX    TMP DP  RH WIND       PRES   REMARKS
OCALA          MOSUNNY   88  70  55 W9        29.97F
THE VILLAGES     N/A     82  82 100 MISG      29.87F HX  97
LEESBURG       TSTM      75  67  76 N20G48    30.01R VSB 1/4
SANFORD        MOSUNNY   89  70  53 S8        29.95F
ORLANDO EXEC   SUNNY     90  72  55 S12       29.96F HX  97
ORLANDO INTL   PTSUNNY   90  72  55 S10       29.96F HX  97
KISSIMMEE      MOSUNNY   90  72  55 W6        29.97F HX  97
WINTER HAVEN   CLOUDY    84  72  67 SW7G18    29.98F
LAKELAND       MOSUNNY   82  73  74 SW12      29.98F
BARTOW         MOSUNNY   86  72  62 SW14      29.98F
OKEECHOBEE     SUNNY     88  72  58 SE3       29.99S

$$
FLZ041-047-054-059-064-141-147-302100-
EAST CENTRAL FLORIDA

CITY           SKY/WX    TMP DP  RH WIND       PRES   REMARKS
ORMOND BEACH   MOSUNNY   84  75  74 E9        29.96F
DAYTONA BEACH  HVY RAIN  86  76  71 E7        29.96F HX  96
DELAND         PTSUNNY   88  73  62 W6        29.95F HX  96
NEW SMYRNA BEA MOSUNNY   88  75  66 E8        29.97F HX  97
JFK SPACE CTR  MOSUNNY   89  73  60 SE7       29.96F HX  96
TITUSVILLE     PTSUNNY   88  73  62 SE9       29.97F HX  96
CAPE CANAVERAL SUNNY     88  75  65 SE10      29.96F HX  97
PATRICK AFB    SUNNY     86  77  73 SE14      29.97F HX  96
MELBOURNE      PTSUNNY   86  76  71 SE14      29.97F HX  96
VERO BEACH     SUNNY     88  75  65 SE14      29.99S HX  97
FT PIERCE      MOSUNNY   87  76  69 E14       29.98S HX  97
STUART         MOSUNNY   90  77  66 SE15      29.99F THUNDER HX 102

STATION/POSITION SKY/WX   TEMP    WIND        PRES    WAVE   SWELL
                          AIR SEA DIR/SP/G            HT/PER HT/PER
                          (F)     (DEG/KT/KT) (MB)    (FT/S) (FT/S)
28.5N   80.2W              83 85  150/ 12/ 14 1015.7F
TRIDENT PIER               87 85  140/  5/  9 1015.7F
28.4N   80.5W                 86                N/A     1/10
27.5N   80.2W                 85                N/A     1/11

$$
FLZ050-056-061-142-242-148-248-149-249-151-251-155-255-
160-260-302100-
WEST CENTRAL FLORIDA

CITY           SKY/WX    TMP DP  RH WIND       PRES   REMARKS
CRYSTAL RIVER  FAIR      86  70  58 W12G18    29.97F
INVERNESS      CLOUDY    88  75  66 CALM      29.97F HX  97
BROOKSVILLE    NOT AVBL
CLEARWATER AIR PTSUNNY   84  75  74 W7        29.97F
ST PETE CLEARW PTSUNNY   88  75  65 SW10      29.97F HX  97
TAMPA INTL     PTSUNNY   88  75  65 W13       29.97F HX  97
TAMPA EXEC     CLOUDY    91  72  52 SW9       29.96F HX  98
PLANT CITY     PTSUNNY   88  75  66 SW10      29.99F HX  97
MACDILL AFB    SUNNY     91  79  67 SW14      29.97F THUNDER HX 107
PETER O KNIGHT SUNNY     90  73  58 SW8       29.97F HX  98
ST PETERSBURG  PTSUNNY   85  74  69 SW10      29.96F
SARASOTA       CLOUDY    88  71  57 SW9       29.96F
VENICE         FAIR      86  77  74 SW8       29.98F HX  97

STATION/POSITION SKY/WX   TEMP    WIND        PRES    WAVE   SWELL
                          AIR SEA DIR/SP/G            HT/PER HT/PER
                          (F)     (DEG/KT/KT) (MB)    (FT/S) (FT/S)
27.3N   84.2W                 86                N/A     2/ 5
CLEARWATER BEACH           83 86  270/  6/  8 1015.7F
MIDDLE TAMPA BAY                  260/ 14/ 16 1015.9F
VENICE                     85 87  230/  6/  7 1015.3F

$$
FLZ066-069-070-075>078-162-262-165-265-302100-
SOUTHWEST FLORIDA AND KEYS

CITY           SKY/WX    TMP DP  RH WIND       PRES   REMARKS
PUNTA GORDA    SUNNY     88  73  61 W12       29.98F HX  95
FT MYERS       SUNNY     89  72  56 W9        29.96F HX  96
SOUTHWEST INTL MOSUNNY   89  72  56 W10       29.97F HX  96
NAPLES         MOSUNNY   88  76  67 W8        29.97F HX  99
MARATHON       MOSUNNY   88  76  67 E8        29.97F HX  99
KEY WEST NAS   MOSUNNY   88  75  65 VRB3      29.96F THUNDER HX  97
KEY WEST INTL  PTSUNNY   86  76  71 NW7       29.97F THUNDER HX  96

STATION/POSITION SKY/WX   TEMP    WIND        PRES    WAVE   SWELL
                          AIR SEA DIR/SP/G            HT/PER HT/PER
                          (F)     (DEG/KT/KT) (MB)    (FT/S) (FT/S)
NAPLES                        88              1015.4F
26.0N   85.6W              83 89  280/  2/  4 1015.7F   1/ 5   2/ 5
DRY TORTUGAS               86     360/  1/  2 1015.0F
SAND KEY                   84      80/  5/  6 1015.4F
LONG KEY                   85 88  100/  9/ 10 1015.4F

$$
FLZ067-068-071>074-168-172>174-302100-
SOUTHEAST FLORIDA

CITY           SKY/WX    TMP DP  RH WIND       PRES   REMARKS
W PALM BEACH   PTSUNNY   83  75  77 S7        29.99F THUNDER
BOCA RATON     PTSUNNY   81  70  69 W12       30.00S THUNDER
FT LAUDER-EXEC TSTM      77  68  73 SW5       29.99F
FT LAUDERDALE  CLOUDY    80  68  66 NW8       29.99F
POMPANO BEACH  LGT RAIN  79  68  69 W3        30.00S
PEMBROKE PINES PTSUNNY   82  67  60 N12       30.01S
OPA LOCKA      TSTM      86  74  67 E10       29.99R
MIAMI          PTSUNNY   88  75  65 E12       29.97F THUNDER HX  97
WEST KENDALL   MOSUNNY   88  73  61 SE12      29.97F HX  95
HOMESTEAD      SUNNY     88  75  65 E9        29.98S HX  98

STATION/POSITION SKY/WX   TEMP    WIND        PRES    WAVE   SWELL
                          AIR SEA DIR/SP/G            HT/PER HT/PER
                          (F)     (DEG/KT/KT) (MB)    (FT/S) (FT/S)
PORT EVERGLADES            85     140/  5/  8 1016.0F
VIRGINIA KEY               85 89  110/  6/  9 1016.1F
LAKE WORTH                        130/  6/  7   N/A
FOWEY ROCKS                84 85  130/  7/  7 1015.9F
SETTLEMENT POINT           84     100/  8/  9 1016.4F

$$





USA.gov is the U.S. government's official web portal to all federal, state and local government web resources and services.